Flight Track Log - Related Links

Times and Time Zones

All times are in EDT time to prevent confusion due to time zone crossing. See the N98017 flight status page for this flight to view local times or setup timezone preferences in your user account.

Time Position Orientation Groundspeed Altitude Reporting Facility
EDT Latitude Longitude Course Direction KTS MPH feet Rate Location/Type
Thu 04:45:25 PM 42.2000 -71.1833 340° North 73 84 900  Level KA90
Thu 04:46:25 PM 42.2333 -71.2000 340° North 82 94 1,500 474 Climbing KA90
Thu 04:47:19 PM 42.2436 -71.2103 323° Northwest 82 94 1,800 474 Climbing Boston Center
Thu 04:48:19 PM 42.2636 -71.2267 329° Northwest 76 87 2,400 443 Climbing Boston Center
Thu 04:49:21 PM 42.2806 -71.2364 337° Northwest 69 79 2,700 333 Climbing Boston Center
Thu 04:50:25 PM 42.3014 -71.2331 North 76 87 3,100 339 Climbing Boston Center
Thu 04:51:25 PM 42.3228 -71.2242 17° North 77 89 3,400 248 Climbing Boston Center
Thu 04:52:26 PM 42.3467 -71.2250 359° North 85 98 3,600 148 Climbing Boston Center
Thu 04:53:27 PM 42.3686 -71.2322 346° North 82 94 3,700  Climbing Boston Center
Thu 04:54:31 PM 42.4000 -71.2167 20° North 91 105 3,600 -48 Descending KA90
Thu 04:55:31 PM 42.4167 -71.2000 36° Northeast 87 100 3,600  Level KA90
Thu 04:56:32 PM 42.4333 -71.1833 36° Northeast 89 102 3,600  Level KA90
Thu 04:57:32 PM 42.4500 -71.1667 36° Northeast 90 104 3,600  Level KA90
Thu 04:58:38 PM 42.4833 -71.1500 20° North 93 107 3,600  Level KA90
Thu 04:59:38 PM 42.5000 -71.1333 36° Northeast 89 102 3,600  Level KA90
Thu 05:00:38 PM 42.5167 -71.1167 36° Northeast 83 96 3,600  Level KA90
Thu 05:01:44 PM 42.5500 -71.1000 20° North 86 99 3,600 -53 Level KA90
Thu 05:02:32 PM 42.5667 -71.0833 36° Northeast 89 102 3,500  Descending KA90
Thu 05:03:44 PM 42.5833 -71.0667 36° Northeast 82 94 3,600 48 Climbing KA90
Thu 05:04:38 PM 42.6167 -71.0500 20° North 86 99 3,600  Level KA90
Thu 05:05:48 PM 42.6322 -71.0406 24° Northeast 89 102 3,600  Level Boston Center
Thu 05:06:49 PM 42.6544 -71.0244 28° Northeast 91 105 3,600  Level Boston Center
Thu 05:07:50 PM 42.6789 -71.0072 27° Northeast 91 105 3,600  Level Boston Center
Thu 05:08:51 PM 42.6997 -70.9914 29° Northeast 87 100 3,600  Level Boston Center
Thu 05:09:54 PM 42.7206 -70.9753 30° Northeast 86 99 3,600  Level Boston Center
Thu 05:10:55 PM 42.7472 -70.9575 26° Northeast 99 114 3,600  Level Boston Center
Thu 05:11:56 PM 42.7694 -70.9414 28° Northeast 91 105 3,600  Level Boston Center
Thu 05:12:57 PM 42.7919 -70.9231 31° Northeast 88 101 3,600  Level Boston Center
Thu 05:14:01 PM 42.8131 -70.9103 24° Northeast 84 97 3,600 -48 Level Boston Center
Thu 05:15:02 PM 42.8336 -70.8950 29° Northeast 85 98 3,500  Descending Boston Center
Thu 05:16:02 PM 42.8556 -70.8817 24° Northeast 81 93 3,600  Climbing Boston Center
Thu 05:17:03 PM 42.8772 -70.8661 28° Northeast 87 100 3,500  Descending Boston Center
Thu 05:17:33 PM 42.8833 -70.8500 63° Northeast 92 106 3,600 67 Climbing KA90
Thu 05:18:33 PM 42.9167 -70.8333 20° North 87 100 3,600  Level KA90
Thu 05:19:39 PM 42.9333 -70.8167 36° Northeast 91 105 3,600  Level KA90
Thu 05:20:39 PM 42.9500 -70.8000 36° Northeast 90 104 3,600  Level KA90
Thu 05:21:39 PM 42.9833 -70.7833 20° North 101 116 3,600  Level KA90
Thu 05:22:39 PM 43.0000 -70.7667 36° Northeast 87 100 3,600  Level KA90
Thu 05:23:39 PM 43.0167 -70.7500 36° Northeast 89 102 3,600  Level KA90
Thu 05:24:39 PM 43.0333 -70.7333 36° Northeast 87 100 3,600 -50 Level KA90
Thu 05:25:39 PM 43.0667 -70.7167 20° North 90 104 3,500  Descending KA90
Thu 05:26:39 PM 43.0833 -70.7000 36° Northeast 86 99 3,600  Climbing KA90
Thu 05:27:39 PM 43.1000 -70.7000 360° North 87 100 3,500 -52 Descending KA90
Thu 05:28:34 PM 43.1167 -70.6833 36° Northeast 88 101 3,500 57 Level KA90
Thu 05:29:24 PM 43.1386 -70.6711 22° Northeast 85 98 3,600  Climbing Boston Center
Thu 05:30:24 PM 43.1603 -70.6531 31° Northeast 86 99 3,500 -48 Descending Boston Center
Thu 05:31:28 PM 43.1800 -70.6397 26° Northeast 81 93 3,500 48 Level Boston Center
Thu 05:32:28 PM 43.2022 -70.6250 26° Northeast 81 93 3,600 48 Climbing Boston Center
Thu 05:33:32 PM 43.2225 -70.6089 30° Northeast 84 97 3,600  Level Boston Center
Thu 05:34:32 PM 43.2458 -70.5942 25° Northeast 91 105 3,600 -48 Level Boston Center
Thu 05:35:36 PM 43.2708 -70.5778 26° Northeast 91 105 3,500  Descending Boston Center
Thu 05:36:36 PM 43.2939 -70.5617 27° Northeast 94 108 3,600  Climbing Boston Center
Thu 05:37:37 PM 43.3156 -70.5442 30° Northeast 91 105 3,500  Descending Boston Center
Thu 05:38:38 PM 43.3375 -70.5264 31° Northeast 85 98 3,600 48 Climbing Boston Center
Thu 05:39:41 PM 43.3597 -70.5106 27° Northeast 88 101 3,600  Level Boston Center
Thu 05:40:42 PM 43.3822 -70.4939 28° Northeast 92 106 3,600  Level Boston Center
Thu 05:41:42 PM 43.4028 -70.4758 33° Northeast 91 105 3,600  Level Boston Center
Thu 05:42:47 PM 43.4247 -70.4592 29° Northeast 90 104 3,600 -48 Level Boston Center
Thu 05:43:48 PM 43.4492 -70.4400 30° Northeast 90 104 3,500  Descending Boston Center
Thu 05:44:48 PM 43.4714 -70.4244 27° Northeast 88 101 3,600  Climbing Boston Center
Thu 05:45:52 PM 43.4956 -70.4072 27° Northeast 93 107 3,500 -145 Descending Boston Center
Thu 05:46:52 PM 43.5197 -70.3906 27° Northeast 99 114 3,300 -300 Descending Boston Center
Thu 05:47:52 PM 43.5456 -70.3733 26° Northeast 103 119 2,900 -435 Descending Boston Center
Thu 05:48:56 PM 43.5725 -70.3528 29° Northeast 103 119 2,400 -480 Descending Boston Center
Thu 05:49:57 PM 43.6006 -70.3342 26° Northeast 110 127 1,900 -590 Descending Boston Center
Thu 05:50:58 PM 43.6272 -70.3106 33° Northeast 115 132 1,200 -774 Descending Boston Center
Thu 05:52:01 PM 43.6439 -70.2933 37° Northeast 88 101 300 -857 Descending Boston Center

Login

Don't have an account? Register now (free) for customized features, flight alerts, and more!